Regional Weather Roundup
Issued by NWS

Home | Current Version | Previous Version | Graphics & Text | Print | Product List | Glossary On
Versions: 1 2 3 4 5 6 7 8 9 10 11 12 13 14 15 16 17 18 19 20 21 22 23 24 25 26 27 28 29 30 31 32 33 34 35 36 37 38 39 40 41 42 43 44 45 46 47 48 49 50
000
ASUS43 KLMK 210910
RWRKY
KENTUCKY REGIONAL WEATHER ROUNDUP
NATIONAL WEATHER SERVICE LOUISVILLE KY
400 AM EST TUE FEB 21 2017

NOTE "FAIR" INDICATES FEW OR NO CLOUDS BELOW 12,000 FEET
WITH NO SIGNIFICANT WEATHER AND/OR OBSTRUCTIONS TO VISIBILITY.

KYZ001>023-026-027-061>063-070>075-211000-
WESTERN AND SOUTH CENTRAL KENTUCKY

CITY           SKY/WX    TMP DP  RH WIND       PRES   REMARKS
PADUCAH        CLOUDY    62  46  55 S7        29.92S
HENDERSON      CLOUDY    55  45  67 SE3       29.94F
OWENSBORO      MOCLDY    56  45  66 SE3       29.98S
HOPKINSVILLE   CLOUDY    59  46  62 SE6       29.95F
BOWLING GREEN  MOCLDY    51  43  74 NE3       29.99F
GLASGOW        PTCLDY    60  45  57 SE7       30.01S
$$

KYZ024-025-028>034-038-045-046-053-211000-
NORTH CENTRAL KENTUCKY

CITY           SKY/WX    TMP DP  RH WIND       PRES   REMARKS
LOUISVILLE/SDF CLOUDY    56  41  57 SE6       29.99F
LOUISVILLE/LOU MOCLDY    57  42  57 CALM      30.00S
FORT KNOX      CLOUDY    57  44  62 SE6       29.97F
$$

KYZ035>037-039>044-047>052-055>060-089>105-211000-
NORTHEAST KENTUCKY

CITY           SKY/WX    TMP DP  RH WIND       PRES   REMARKS
LEXINGTON      CLOUDY    56  40  55 S6        30.04S
COVINGTON      CLOUDY    50  40  68 SE6       30.02S
FRANKFORT      CLOUDY    54  40  59 SE6       30.01F
$$

KYZ054-064>069-076>088-106>120-211000-
SOUTHEAST KENTUCKY

CITY           SKY/WX    TMP DP  RH WIND       PRES   REMARKS
JACKSON        PTCLDY    56  37  49 S3        30.08F
LONDON         PTCLDY    48  40  73 CALM      30.08F
SOMERSET       CLOUDY    52  41  66 S3        30.08S
MIDDLESBORO    CLOUDY    42  41  97 CALM      30.12S
MONTICELLO     CLOUDY    57  46  66 E8        30.08
$$





USA.gov is the U.S. government's official web portal to all federal, state and local government web resources and services.